Regional Weather Roundup
Issued by NWS

Home | Current Version | Previous Version | Text Only | Print | Product List | Glossary On
Versions: 1 2 3 4 5 6 7 8 9 10 11 12 13 14 15 16 17 18 19 20 21 22 23 24 25 26 27 28 29 30 31 32 33 34 35 36 37 38 39 40 41 42 43 44 45 46 47 48 49 50
000
ASUS44 KEWX 231002
RWRTX
SOUTH TEXAS REGIONAL WEATHER ROUNDUP
NATIONAL WEATHER SERVICE AUSTIN/SAN ANTONIO TX
500 AM CDT WED JUL 23 2014

NOTE: "FAIR" INDICATED FEW OR NO CLOUDS BELOW 12,000 FEET WITH NO
SIGNIFICANT WEATHER AND/OR OBSTRUCTIONS TO VISIBILITY.

* - THESE STATIONS ARE NOT NWS OR FAA STATIONS...AND ARE NOT SUBJECT
    TO NWS AND FAA QUALITY CONTROL.

TXZ171-172-183>190-231100-
TEXAS HILL COUNTRY AND EDWARDS PLATEAU

CITY           SKY/WX    TMP DP  RH WIND       PRES   REMARKS
JUNCTION       CLEAR     70  65  84 CALM      30.11S
*LLANO         CLEAR     75  70  83 CALM      30.10S
BURNET         CLEAR     77  70  79 NE3       30.09F
*HORSESHOE BAY CLEAR     73  67  81 CALM      30.07S
*KERRVILLE     CLEAR     72  66  82 CALM      30.10S
*FREDERICKSBRG CLEAR     70  65  83 CALM      30.09F
*ROCKSPRINGS   CLEAR     73  63  68 SE5       30.15R
*BOERNE STAGE  CLEAR     70  64  83 CALM      30.09S
*CASTROVILLE   CLEAR     76  73  90 CALM      30.06S
HONDO          CLEAR     74  71  91 NE7       30.07R
*UVALDE        CLEAR     75  73  91 NE5       30.05S
DEL RIO        PTCLDY    80  68  66 E6        30.03S
LAUGHLIN AFB   NOT AVBL
CARRIZO SPRGS  PTCLDY    77  73  88 CALM      30.00F
$$

TXZ173-191>194-202-209-217>225-228-231100-
CENTRAL AND SOUTH CENTRAL TEXAS

CITY           SKY/WX    TMP DP  RH WIND       PRES   REMARKS
GEORGETOWN     PTCLDY    75  72  88 N3        30.07S
AUSTIN/BERGSTM PTCLDY    76  72  87 SW5       30.03S
AUSTIN/MABRY   CLEAR     78  73  84 CALM      30.05R
*AUSTIN/EXEC   PTCLDY    75  73  94 CALM      30.05S
*LAGO VISTA    CLEAR     78  71  78 CALM      30.08S
SAN MARCOS     CLEAR     75  68  78 CALM      30.06S
NEW BRAUNFELS  CLEAR     74  72  93 CALM      30.04R
RANDOLPH AFB   CLEAR     76  73  91 S2        30.05S
PT SAN ANTONIO CLEAR     77  74  88 SE3       30.04S
SAN ANTONIO    PTCLDY    79  75  87 S5        30.05S
STINSON FIELD  CLEAR     78  74  87 CALM      30.03S
*PLEASANTON    CLEAR     76  73  91 CALM      30.03F FOG
*LA GRANGE     CLEAR     77  75  94 CALM      30.02R
*GIDDINGS      PTCLDY    75  72  90 CALM      30.07S
*GONZALES      CLEAR     77  76  97 CALM      30.03R
$$

TXZ163>164-176>182-195>201-210>213-226-227-235-231100-
SOUTHEAST TEXAS

CITY           SKY/WX    TMP DP  RH WIND       PRES   REMARKS
COLLEGE STN    MOCLDY    78  74  87 CALM      30.03F
*BRYAN         CLEAR     75  73  94 CALM      30.03S
*CALDWELL      MOCLDY    77  75  94 CALM      30.07S
*CROCKETT      CLEAR     73  73 100 CALM      30.08S FOG
*BRENHAM       CLEAR     76  74  93 CALM      30.04S FOG
HUNTSVILLE     CLEAR     74  72  93 CALM      30.05R FOG
CONROE         CLEAR     75  74  96 CALM      30.04R FOG
HOUSTON BUSH   PTCLDY    77  75  93 CALM      30.02R
HOUSTON HOBBY  MOCLDY    80  76  87 W3        30.01S
*HOUSTON SW AP CLEAR     75  75 100 CALM      30.02S
PEARLAND       CLEAR     78  75  90 NW5       30.02S
HOUSTON HOOKS  CLEAR     77  76  96 CALM      30.03R
ELLINGTON FLD  MOCLDY    79  75  89 CALM      30.02S
SUGAR LAND     CLEAR     76  74  93 CALM      30.02S
*HOUSTON EXEC  CLOUDY    77  77 100 W3        30.04S
*CLEVELAND MUN CLEAR     74  73  98 CALM      30.03S FOG
*WHARTON       MOCLDY    76  75  96 CALM      30.03S FOG
$$

TXZ214>216-236>238-231100-
THE UPPER TEXAS COAST

CITY           SKY/WX    TMP DP  RH WIND       PRES   REMARKS
*ORANGE        CLEAR     73  73 100 CALM      30.03R FOG
PORT ARTHUR    CLEAR     75  72  90 N5        30.01R
GALVESTON      CLEAR     82  78  88 W6        30.01S HX  91
ANGLETON       CLEAR     76  75  97 CALM      30.00F
*BAY CITY      CLEAR     79  79 100 CALM      30.01S
PALACIOS       MOCLDY    84  77  79 S5        30.01S HX  94
$$

TXZ229>234-239>247-231100-
TEXAS COASTAL BEND AND RIO GRANDE PLAINS

CITY           SKY/WX    TMP DP  RH WIND       PRES   REMARKS
VICTORIA       MOCLDY    79  78  97 CALM      30.02S
*BEEVILLE      MOCLDY    77  77 100 S3        30.01F FOG
ROCKPORT       CLEAR     81  77  88 S3        30.01S
*PORT ARANSAS  MOCLDY    81  79  94 S7        30.01S
*PORT LAVACA   NOT AVBL
*INGLESIDE     CLEAR     81  78  89 S6        30.00S HX  90
CORPUS CHRISTI MOCLDY    78  76  93 SE7       30.01S
CORPUS NAS     MOCLDY    82  79  90 S9        30.01R HX  92
*ROBSTOWN        N/A     78  77  95 SE5       30.01S FOG
ALICE          MOCLDY    79  77  94 S13       30.00F FOG
KINGSVILLE NAS CLEAR     79  78  97 S6        30.00F
COTULLA        CLEAR     79  74  84 E6        30.01F
*FAITH RANCH   CLEAR     79  73  83 E5        30.02S
LAREDO         CLEAR     82  74  77 SE9       30.02F
$$

TXZ248>255-231100-
DEEP SOUTH TEXAS

CITY           SKY/WX    TMP DP  RH WIND       PRES   REMARKS
BROWNSVILLE    CLEAR     77  76  96 S3        30.00F
PORT ISABEL    CLEAR     79  75  87 S3        30.00S
*SOUTH PADRE     N/A     77  77 100 S6        30.00S
HARLINGEN      CLEAR     78  77  96 S7        29.98F
*HEBBRONVILLE  CLEAR     78  74  90 SE3       30.03R FOG
MCALLEN        CLEAR     80  77  90 SE7       30.00F
*WESLACO       NOT AVBL
FALFURRIAS       N/A     62  62 100 E5        30.00S
EDINBURG       CLEAR     81  76  86 S6        30.00F
*ZAPATA        PTCLDY    81  73  75 SE12G17   29.99S
$$

TXZ213>215-236>238-242>244-246-247-251-254-255-231100-
CMAN STATIONS

STATION/POSITION TIME  TEMP    WIND        PRES    WAVE
                       AIR SEA DIR/SP/G            HT/PER
                 (UTC) (F)     (DEG/KT/KT) (MB)    (FT/S)
SABINE PASS      0900   81 85  320/  2/  2 1016.2
SEA RIM ST PARK  0900   80     350/  5/  6 1016.5
NORTH JETTY/GLS  0900   83 90  330/  5/  7   N/A
EAGLE POINT      0900   80 89  310/  3/  4 1016.1
MORGANS POINT    0900   82 91  260/  5/  6 1016.1
MISSION/ARANSAS  0900   82     200/  8     1017.0
PORT O`CONNOR    0900          190/  6/  7   N/A
PORT ARANSAS     0900   82 87  170/  9/  9 1016.3
MALAQUITE BEACH  0900   81 84  180/  8/ 10 1015.5
BAFFIN BAY       0900   81 83  170/  9/ 10 1016.1
PORT ISABEL      0900   81 82  160/  6/  9 1016.2
$$

GMZ080-GMZ150>470-231100-
OFFSHORE BUOY REPORTS

STATION/POSITION TIME  TEMP    WIND        PRES    WAVE
                       AIR SEA DIR/SP/G            HT/PER
                 (UTC) (F)     (DEG/KT/KT) (MB)    (FT/S)
20 E GALVESTON   0900   84 86  260/ 10/ 10 1015.6
90 E PT ARANSAS  1000   83 84  200/  8/  8 1016.6    2/ 6
35 NE PT MANSFLD 0900   83 82  180/  8/ 10 1016.1    2/ 6
200 E PT ISABEL  0900   83 85  170/  8/ 10 1016.2    1/ 5
$$


USA.gov is the U.S. government's official web portal to all federal, state and local government web resources and services.